Location: The Saddle
(36.8333°N, 80.3417°W)
Time: 17:02:44
(UTC-05:00)

Transit 2A - Visible Passes

Search period start: 20 February 2024 00:00
Search period end: 01 March 2024 00:00
Orbit: 600 x 953 km, 66.7° (Epoch: 19 February)

Date Brightness Start Highest point End Pass type
(mag) Time Alt. Az. Time Alt. Az. Time Alt. Az.
20 Feb 8.7 04:39:32 10° NNE 04:41:04 11° NE 04:42:38 10° ENE visible
20 Feb 6.0 06:19:47 10° NNW 06:24:43 85° ENE 06:30:12 10° SSE visible
21 Feb 6.6 05:44:53 10° NNW 05:49:43 55° ENE 05:55:01 10° SE visible
21 Feb 7.9 20:22:44 10° SSW 20:23:26 14° SSW 20:23:26 14° SSW visible
22 Feb 7.4 05:10:07 10° N 05:14:39 36° ENE 05:19:35 10° SE visible
22 Feb 6.4 19:48:00 10° S 19:50:50 33° SSE 19:50:50 33° SSE visible
23 Feb 8.0 04:35:30 10° N 04:39:31 25° NE 04:43:50 10° ESE visible
23 Feb 6.5 06:17:59 10° NW 06:22:40 40° WSW 06:27:49 10° S visible
23 Feb 6.5 19:13:37 10° SSE 19:17:19 26° ESE 19:18:15 24° E visible
23 Feb 7.9 20:56:39 10° WSW 20:58:47 21° W 20:58:47 21° W visible
24 Feb 8.4 04:02:06 13° NNE 04:04:20 17° NE 04:07:42 10° E visible
24 Feb 6.0 05:42:47 10° NW 05:47:44 63° WSW 05:53:11 10° SSE visible
24 Feb 7.1 18:39:46 10° SE 18:42:29 16° ESE 18:45:07 10° ENE visible
24 Feb 6.8 20:21:02 10° SW 20:25:10 39° WNW 20:26:11 34° NNW visible
25 Feb 8.8 03:28:53 11° NE 03:29:04 11° NE 03:30:45 10° ENE visible
25 Feb 5.9 05:09:23 22° NNW 05:12:44 84° ENE 05:18:16 10° SSE visible
25 Feb 5.8 19:45:44 10° SW 19:50:07 66° WNW 19:53:30 16° NNE visible
26 Feb 6.5 04:36:23 42° N 04:37:43 55° ENE 04:43:05 10° SE visible
26 Feb 7.5 06:17:11 10° WNW 06:20:29 17° WSW 06:23:58 10° SSW visible
26 Feb 5.4 19:10:43 10° SSW 19:15:07 75° ESE 19:19:27 10° NNE visible
26 Feb 8.6 20:57:31 10° WNW 20:58:42 11° NW 20:59:53 10° NNW visible
27 Feb 7.5 04:03:35 34° E 04:03:35 34° E 04:07:39 10° SE visible
27 Feb 6.9 05:44:06 23° W 05:45:36 27° WSW 05:50:11 10° SSW visible
27 Feb 5.9 18:35:59 10° S 18:40:10 43° ESE 18:44:17 10° NE visible
27 Feb 8.3 20:20:37 10° W 20:23:26 17° NW 20:26:15 10° N visible
28 Feb 8.7 03:30:56 14° ESE 03:30:56 14° ESE 03:31:54 10° ESE visible
28 Feb 6.5 05:11:27 38° SW 05:11:27 38° SW 05:15:53 10° S visible
28 Feb 7.7 19:44:36 10° WSW 19:48:14 25° NW 19:51:51 10° N visible
29 Feb 7.6 04:38:57 24° S 04:38:57 24° S 04:41:15 10° SSE visible
29 Feb 6.9 19:09:00 10° SW 19:13:07 39° WNW 19:17:12 10° NNE visible
